Погода Красный Яр

Погода Красный Яр : погода сейчас, прогноз погоды и архив. Всё, что Вы хотите узнать о погоде Красный Яр!

Хотите узнать прогноз погоды Красный Яр? Тогда Вам сюда: Погода Красный Яр

Поиск расширенной информации на нашем сайте:

Другие новости

Новости СМИ2

Главная страница сайта

Новости сайта

03.07.2017

Напоминаем, что на нашем специализированном сайте Метеоцентр.Азия вы можете получить высокодетализированные автоматические прогнозы погоды по пунктам России, СНГ и мира в авиационном формате (включающие направление и скорость ветра, видимость, явления погоды, количество и форму облачности, нижнюю и верхнюю границу облачности).

Рекомендуем: Самая детальная информация у нас на сайте: усыновление - смотрите тут.

Погода Красный Яр - сегодня

Время (UTC), дата Ветер
(°,м/с) 
Видим.   Явления Облачность Т
(°С)
Тd
(°С)
f(%) Тe
(°С)
Pmin
(гПа)
dP
(гПа)
Po
(мм)
O2
(г/м3)
Тmin Tmax R s Состояние
почвы
06 17.09.17 210 (ЮЗ) 20000 м    8/0 верхняя 
[Ci fib]
+23.9 +8.4 37 +24  1011.2  -2.2  747  275           
12 17.09.17 тихо ()   20000 м    3/0 верхняя 
[Ci fib]
+11.4 +11 97 +14  1011.4  0.1  747  287           
15 17.09.17 тихо ()   20000 м    3/0 верхняя 
[Ci fib]
+10.5 +10.3 99 +12  1010.3  -1.1  746  288           
18 17.09.17 050 (СВ) 20000 м    10/6 600 м средняя 
[Sc|Ac trans]
+13.4 +9.9 79 +15  1007.6  -2.5  744  284           
00 18.09.17 050 (СВ) 20000 м    10/0 средняя 
[Ac und]
+15 +8.4 65 +16  1003.6  -2.2  741  282           
03 18.09.17 040 (СВ) 20000 м    10/3 600 м средняя 
[Sc|Ac und]
+18 +11.4 65 +22  1000.7  -2.8  739  277           
06 18.09.17 050 (СВ) 20000 м    10/10 600 м 
[Sc|Ac und]
+18.2 +11.1 63 +22  998.8  -1.9  738  277           
12 18.09.17 тихо ()   20000 м    8/0 средняя 
[Ac trans]
+11 +10.8 99 +14  998.3  737  284           
15 18.09.17 тихо ()   20000 м  {ливн. осадки}  10/10 600 м кучево-дожд. 
[Cb cap]
+11.6 +11.5 99 +15  997.4  -0.8  737  282           
18 18.09.17 250 (З) 20000 м  {ливн. осадки}  10/10 600 м кучево-дожд. 
[Cb cap]
+12.9 +12.5 97 +19  997.9  0.5  737  281           
21 18.09.17 260 (З) 10 км  слаб. ливневой дождь  10/10 600 м кучево-дожд. 
[Cb cap]
+12.9 +12.5 97 +19  999.1  1.2  738  281  +11      влажная 
00 19.09.17 270 (З) 20000 м  {ливн. осадки}  10/10 600 м кучево-дожд. 
[Cb cap]
+14.2 +12.5 90 +20  1000.2  1.1  739  280           
03 19.09.17 270 (З) 20000 м  {ливн. осадки}  10/10 600 м кучево-дожд. 
[Cb cap]
+14.8 +11.5 81 +19  1000.6  0.5  739  280           
06 19.09.17 020 (С) 4000 м  ливневой дождь  10/10 600 м кучево-дожд. 
[Cb cap]
+13 +11.7 92 +18  1001  0.3  739  282           
09 19.09.17 тихо ()   10 км  слаб. ливневой дождь  10/10 600 м кучево-дожд. 
[Cb cap]
+13 +12.6 97 +18  1001.9  0.8  740  282    +16.6     
12 19.09.17 тихо ()   20000 м  {ливн. осадки}  10/10 600 м кучево-дожд. 
[Cb cap]
+12.6 +12.5 99 +18  1003.1  1.2  741  283           
15 19.09.17 тихо ()   20000 м    10/10 600 м кучево-дожд. 
[Cb cap]
+11.4 +11.3 99 +15  1003.9  0.7  741  285           
18 19.09.17 тихо ()   20000 м    10/10 600 м кучево-дожд. 
[Cb cap]
+11.6 +11.6 100 +15  1003.7  -0.2  741  284           
21 19.09.17 тихо ()   20000 м    10/10 600 м кучево-дожд. 
[Cb cap]
+12.5 +12.4 99 +17  1004.1  0.4  742  283  +11.3      влажная 
00 20.09.17 тихо ()   20000 м    10/10 600 м кучево-дожд. 
[Cb cap]
+14.9 +12.5 86 +20  1005.9  742  281           
03 20.09.17 050 (СВ) 20000 м    8/6 600 м верхняя 
[Cu hum|Ci fib]
+19.2 +10.6 57 +23  1004.3  -0.4  742  277           
06 20.09.17 290 (З) 20000 м    3/3 600 м верхняя 
[Cu hum|Ci fib]
+20.5 +10.3 52 +22  1003.3  -1  741  276           
09 20.09.17 тихо ()   20000 м    4/3 600 м верхняя 
[Sc|Ci fib]
+15.3 +12.1 81 +20  1005  1.4  742  281    +21.3       
12 20.09.17 тихо ()   20000 м    ясно 
+9.6 +9.5 99 +10  1007.4  2.1  744  288           
15 20.09.17 тихо ()   20000 м    ясно 
+6.7 +6.7 100 +7  1008.5  0.9  745  292           
Время (UTC), дата Ветер
(°,м/с) 
Видим.   Явления Облачность Т
(°С)
Тd
(°С)
f(%) Тe
(°С)
Pmin
(гПа)
dP
(гПа)
Po
(мм)
O2
(г/м3)
Тmin Tmax R s Состояние
почвы

Для получения пояснительной информации подведите курсор к названию столбца.

ПОГОДА Красный Яр - архив

Всё, что Вы хотите узнать о погоде Красный Яр - удобно и подробно!

Выберите нужную дату (начиная с 1 января 2015* года) и нажмите кнопку "Найти".
Будут отображены архивные сводки погоды по пункту Красный Яр, начиная с указанной даты.


Отображать данные в формате CSV (для использования в таблицах Excel)


Внимание! Наш архив погоды предназначен исключительно для личного некоммерческого использования в познавательных целях. Если Вам необходимы официальные справки о состоянии погоды (для производственных, юридических, коммерческих и т.п. целей), обращайтесь в органы Росгидромета.

*Примечание: данная дата относится к архиву по метеостанциям СССР (Россия, СНГ, Балтия).
Архив по метеостанциям Зарубежной Европы и Азии (кроме Китая) хранится 10 дней, по другим регионам земного шара (Китай, Африка, Америка, Австралия, Океания) - 1 день.

Красный Яр - район местоположения метеостанции


Название, широта, долгота, высота метеостанции:
Красный Яр 46.5°ш. 135.3°д. 130 м над ур. моря [Российская Федерация]

Дополнительная информация

В oтличие oт бoльшинства пoгoдных сайтoв мы публикуем пoдрoбную метеoинфoрмацию в детальнoм прoфессиoнальнoм фoрмате.

Характеристики температуры и влажнoсти вoздуха измеряются на высoте 2 м в тени вдали oт зданий и деревьев.
Скoрoсть ветра измеряется на высoте 10 м (на урoвне рoста челoвека скoрoсть ветра ниже в 1.5-2 раза). Если метеoстанция нахoдится в гoрoде или в лесу, тo скoрoсть ветра занижена на 2-4 м/с пo сравнению с oткрытым местoм. Скoрoсть ветра над акватoриями крупных рек и oзёр, а также на вершинах хoлмoв на 2-5 м/с выше, чем в oбычных услoвиях.
Атмoсфернoе давление в разных тoчках местнoсти мoжет значительнo oтличаться oт давления на метеoстанции, в зависимoсти oт услoвий рельефа (при пoдъёме на 10 м давление пoнижается примернo на 1 мм рт.ст.).